Regional Weather Roundup
Issued by NWS Charleston, WV

Home | Current Version | Previous Version | Graphics & Text | Print | Product List | Glossary On
Versions: 1 2 3 4 5 6 7 8 9 10 11 12 13 14 15 16 17 18 19 20 21 22 23 24 25 26 27 28 29 30 31 32 33 34 35 36 37 38 39 40 41 42 43 44 45 46 47 48 49 50
000
ASUS41 KRLX 210110
RWRRLX
West Virginia Regional Weather Roundup
National Weather Service Charleston WV
800 PM EST TUE FEB 20 2018

Note: "fair" indicates few or no clouds below 12,000 feet with no
significant weather and/or obstructions to visibility.

WVZ003-210200-
Northern Panhandle of West Virginia

CITY           SKY/WX    TMP DP  RH WIND       PRES   REMARKS
WHEELING         N/A     69  51  52 S8        30.18F
$$

WVZ009-210200-
Northwest West Virginia

CITY           SKY/WX    TMP DP  RH WIND       PRES   REMARKS
PARKERSBURG      N/A     66  51  58 S3        30.21F
$$

WVZ006-210200-
Western West Virginia

CITY           SKY/WX    TMP DP  RH WIND       PRES   REMARKS
HUNTINGTON       N/A     73  52  47 SW8       30.22R
$$

WVZ015-210200-
West Central West Virginia

CITY           SKY/WX    TMP DP  RH WIND       PRES   REMARKS
CHARLESTON       N/A     71  49  45 S8        30.22S
$$

WVZ022-031-210200-
North Central West Virginia

CITY           SKY/WX    TMP DP  RH WIND       PRES   REMARKS
CLARKSBURG       N/A     66  49  54 CALM      30.22S
MORGANTOWN       N/A     67  49  52 CALM      30.22F
$$

WVZ025-035-042-045-210200-
Southern West Virginia

CITY           SKY/WX    TMP DP  RH WIND       PRES   REMARKS
BECKLEY          N/A     63  52  67 SE12      30.33R
LOGAN            N/A     72  46  40 CALM      30.27S
BLUEFIELD        N/A     60  50  69 VRB7G17   30.38R
LEWISBURG        N/A     59  51  74 S3        30.37R
$$

WVZ047-210200-
Northern Mountains of West Virginia

CITY           SKY/WX    TMP DP  RH WIND       PRES   REMARKS
ELKINS           N/A     57  49  74 CALM      30.28S
$$

WVZ052-210200-
Eastern Panhandle of West Virginia

CITY           SKY/WX    TMP DP  RH WIND       PRES   REMARKS
MARTINSBURG      N/A     68  55  63 S10       30.25F
PETERSBURG       N/A     68  53  58 SE7       30.27R
$$



USA.gov is the U.S. government's official web portal to all federal, state and local government web resources and services.